FW6574 Weather Reports


time (UTC)temp
C
wind
direction
speed
KPH
gust
KPH
rain 1hr
cm
rain 24hr
cm
rain mn
cm
humidity
%
barometer
mb
20260510202517 26 0 0.0 6.4 0.00 0.00 0.00 39 1013.7
20260510202019 26 246 0.0 6.4 0.00 0.00 0.00 38 1013.9
20260510201534 26 0 1.6 6.4 0.00 0.00 0.00 38 1013.9
20260510201016 26 0 0.0 4.8 0.00 0.00 0.00 38 1013.8
20260510200516 26 0 0.0 3.2 0.00 0.00 0.00 38 1013.8
20260510200031 26 0 0.0 6.4 0.00 0.00 0.00 38 1013.9
20260510195516 27 0 0.0 6.4 0.00 0.00 0.00 38 1013.9
20260510195016 27 0 0.0 6.4 0.00 0.00 0.00 36 1014.0
20260510194533 27 0 0.0 3.2 0.00 0.00 0.00 35 1014.1
20260510194018 27 0 0.0 11.3 0.00 0.00 0.00 36 1014.1
20260510193516 27 0 1.6 11.3 0.00 0.00 0.00 38 1014.3
20260510193034 26 157 1.6 12.9 0.00 0.00 0.00 37 1014.2
20260510192514 26 0 1.6 12.9 0.00 0.00 0.00 40 1014.3
20260510192014 26 0 1.6 8.0 0.00 0.00 0.00 39 1014.4
20260510191533 27 0 1.6 8.0 0.00 0.00 0.00 36 1014.3
20260510191020 28 225 3.2 11.3 0.00 0.00 0.00 36 1014.2
20260510190513 27 142 1.6 11.3 0.00 0.00 0.00 37 1014.2
20260510190036 27 0 0.0 9.7 0.00 0.00 0.00 37 1014.3
20260510185517 27 0 0.0 0.0 0.00 0.00 0.00 39 1014.2
20260510185014 26 0 0.0 0.0 0.00 0.00 0.00 42 1014.4
20260510184535 26 0 0.0 3.2 0.00 0.00 0.00 38 1014.5
20260510184016 26 0 0.0 6.4 0.00 0.00 0.00 41 1014.3
20260510183514 27 0 0.0 6.4 0.00 0.00 0.00 38 1014.3
20260510183036 26 0 0.0 9.7 0.00 0.00 0.00 40 1014.5
20260510182516 26 0 3.2 9.7 0.00 0.00 0.00 38 1014.4
20260510182014 26 0 1.6 8.0 0.00 0.00 0.00 40 1014.5
20260510181545 26 267 1.6 12.9 0.00 0.00 0.00 38 1014.5
20260510181016 26 0 1.6 12.9 0.00 0.00 0.00 38 1014.8
20260510180514 25 241 3.2 12.9 0.00 0.00 0.00 40 1014.7
20260510180044 25 0 0.0 4.8 0.00 0.00 0.00 42 1014.7
20260510175513 25 0 0.0 1.6 0.00 0.00 0.00 40 1014.8
20260510175015 25 0 0.0 3.2 0.00 0.00 0.00 41 1014.8
20260510174532 25 0 0.0 9.7 0.00 0.00 0.00 43 1015.0
20260510174019 25 0 0.0 9.7 0.00 0.00 0.00 40 1015.0
20260510173516 26 273 0.0 8.0 0.00 0.00 0.00 38 1014.9
20260510173031 26 0 3.2 9.7 0.00 0.00 0.00 37 1015.0
20260510172513 26 167 1.6 9.7 0.00 0.00 0.00 39 1015.1
20260510172015 27 276 0.0 6.4 0.00 0.00 0.00 38 1015.2
20260510171536 26 0 1.6 6.4 0.00 0.00 0.00 39 1015.3
20260510171016 26 0 0.0 8.0 0.00 0.00 0.00 39 1015.3
20260510170516 26 0 0.0 9.7 0.00 0.00 0.00 41 1015.4
20260510170032 26 0 0.0 9.7 0.00 0.00 0.00 41 1015.4
20260510165517 26 277 0.0 6.4 0.00 0.00 0.00 39 1015.3
20260510165021 26 0 0.0 11.3 0.00 0.00 0.00 41 1015.4
20260510164534 25 216 0.0 11.3 0.00 0.00 0.00 40 1015.4
20260510164013 26 0 1.6 8.0 0.00 0.00 0.00 39 1015.5
20260510163517 26 290 0.0 6.4 0.00 0.00 0.00 42 1015.4
20260510163034 26 0 1.6 9.7 0.00 0.00 0.00 39 1015.6
20260510162517 26 0 0.0 9.7 0.00 0.00 0.00 42 1015.3
20260510162018 25 0 3.2 9.7 0.00 0.00 0.00 42 1015.3
20260510161531 25 0 1.6 9.7 0.00 0.00 0.00 44 1015.3
20260510161017 24 0 0.0 9.7 0.00 0.00 0.00 44 1015.3
20260510160516 24 244 0.0 11.3 0.00 0.00 0.00 43 1015.4
20260510160037 25 163 3.2 11.3 0.00 0.00 0.00 44 1015.6
20260510155519 25 278 1.6 11.3 0.00 0.00 0.00 44 1015.5
20260510155014 25 0 0.0 8.0 0.00 0.00 0.00 44 1015.5
20260510154536 24 0 0.0 4.8 0.00 0.00 0.00 47 1015.5
20260510154018 23 232 1.6 4.8 0.00 0.00 0.00 48 1015.6
20260510153517 23 209 0.0 4.8 0.00 0.00 0.00 51 1015.5
20260510153034 23 173 1.6 4.8 0.00 0.00 0.00 52 1015.5
20260510152517 23 47 0.0 4.8 0.00 0.00 0.00 51 1015.6
20260510152016 23 0 0.0 6.4 0.00 0.00 0.00 52 1015.6
20260510151540 22 205 0.0 6.4 0.00 0.00 0.00 54 1015.7
20260510151016 22 0 0.0 6.4 0.00 0.00 0.00 54 1015.7
20260510150516 22 177 0.0 6.4 0.00 0.00 0.00 53 1015.6
20260510150046 22 0 0.0 6.4 0.00 0.00 0.00 55 1015.6
20260510145512 22 0 0.0 6.4 0.00 0.00 0.00 55 1015.6
20260510145014 22 27 0.0 6.4 0.00 0.00 0.00 54 1015.6
20260510144535 22 0 0.0 4.8 0.00 0.00 0.00 54 1015.6
20260510144015 22 0 0.0 6.4 0.00 0.00 0.00 55 1015.7
20260510143515 22 255 0.0 6.4 0.00 0.00 0.00 56 1015.6
20260510143032 21 0 0.0 6.4 0.00 0.00 0.00 54 1015.7
20260510142513 21 0 0.0 4.8 0.00 0.00 0.00 56 1015.7
20260510142018 21 0 0.0 0.0 0.00 0.00 0.00 58 1015.8
20260510141532 21 0 0.0 0.0 0.00 0.00 0.00 58 1015.8
20260510141016 21 0 0.0 3.2 0.00 0.00 0.00 61 1015.8
20260510140518 20 0 0.0 3.2 0.00 0.00 0.00 61 1015.8
20260510140031 20 0 0.0 0.0 0.00 0.00 0.00 63 1015.9
20260510135518 20 0 0.0 0.0 0.00 0.00 0.00 64 1015.9
20260510135016 19 0 0.0 0.0 0.00 0.00 0.00 65 1016.0
20260510134532 19 0 0.0 0.0 0.00 0.00 0.00 67 1016.2
20260510134016 18 0 0.0 0.0 0.00 0.00 0.00 69 1016.0
20260510133514 18 0 0.0 1.6 0.00 0.00 0.00 68 1016.1
20260510133032 18 0 0.0 1.6 0.00 0.00 0.00 68 1016.1
20260510132516 18 0 0.0 3.2 0.00 0.00 0.00 69 1016.1
20260510132013 17 0 0.0 4.8 0.00 0.00 0.00 71 1016.1
20260510131531 17 0 0.0 4.8 0.00 0.00 0.00 73 1016.1
20260510131016 16 0 0.0 4.8 0.00 0.00 0.00 75 1016.1
20260510130517 16 0 0.0 0.0 0.00 0.00 0.00 79 1016.0
20260510130033 16 0 0.0 0.0 0.00 0.00 0.00 80 1016.2
20260510125515 15 0 0.0 0.0 0.00 0.00 0.00 81 1016.1
20260510125016 15 0 0.0 0.0 0.00 0.00 0.00 82 1016.2
20260510124534 14 0 0.0 1.6 0.00 0.00 0.00 84 1016.0
20260510124016 14 0 0.0 1.6 0.00 0.00 0.00 86 1016.0
20260510123516 13 0 0.0 1.6 0.00 0.00 0.00 89 1016.1
20260510123034 12 0 0.0 0.0 0.00 0.00 0.00 91 1015.9
20260510122513 12 0 0.0 0.0 0.00 0.00 0.00 93 1016.0
20260510122015 11 0 0.0 0.0 0.00 0.00 0.00 95 1015.9
20260510121532 10 0 0.0 0.0 0.00 0.00 0.00 95 1015.9
20260510121016 10 0 0.0 0.0 0.00 0.00 0.00 95 1015.8
20260510120520 9 0 0.0 0.0 0.00 0.00 0.00 95 1015.8
20260510120031 8 0 0.0 0.0 0.00 0.00 0.00 95 1015.7
20260510115514 8 0 0.0 0.0 0.00 0.00 0.00 95 1015.8
20260510115018 7 0 0.0 0.0 0.00 0.00 0.00 96 1015.8
20260510114531 7 0 0.0 0.0 0.00 0.00 0.00 95 1016.0
20260510114014 7 0 0.0 0.0 0.00 0.00 0.00 95 1015.6
20260510113514 6 0 0.0 0.0 0.00 0.00 0.00 95 1015.6
20260510113033 6 0 0.0 0.0 0.00 0.00 0.00 96 1015.6
20260510112513 6 0 0.0 0.0 0.00 0.00 0.00 95 1015.6
20260510112017 6 0 0.0 0.0 0.00 0.00 0.00 95 1015.7
20260510111537 5 0 0.0 0.0 0.00 0.00 0.00 95 1015.6
20260510111015 5 0 0.0 0.0 0.00 0.00 0.00 95 1015.3
20260510110514 5 0 0.0 0.0 0.00 0.00 0.00 95 1015.2
20260510110032 5 0 0.0 0.0 0.00 0.00 0.00 95 1015.0
20260510105513 5 0 0.0 0.0 0.00 0.00 0.00 95 1014.9
20260510105013 5 0 0.0 0.0 0.00 0.00 0.00 95 1014.7
20260510104532 5 0 0.0 0.0 0.00 0.00 0.00 95 1014.7
20260510104015 5 0 0.0 0.0 0.00 0.00 0.00 95 1014.6
20260510103513 5 0 0.0 0.0 0.00 0.00 0.00 95 1014.6
20260510103037 5 0 0.0 0.0 0.00 0.00 0.00 95 1014.5
20260510102515 5 0 0.0 0.0 0.00 0.00 0.00 95 1014.6
20260510102014 4 0 0.0 0.0 0.00 0.00 0.00 95 1014.4
20260510101532 4 0 0.0 0.0 0.00 0.00 0.00 95 1014.5
20260510101015 5 0 0.0 0.0 0.00 0.00 0.00 95 1014.4
20260510100516 5 0 0.0 0.0 0.00 0.00 0.00 95 1014.4
20260510100033 5 0 0.0 0.0 0.00 0.00 0.00 95 1014.2
20260510095519 5 0 0.0 0.0 0.00 0.00 0.00 95 1014.2
20260510095017 5 0 0.0 0.0 0.00 0.00 0.00 95 1014.2
20260510094544 5 0 0.0 0.0 0.00 0.00 0.00 95 1014.2
20260510094013 5 0 0.0 0.0 0.00 0.00 0.00 95 1014.4
20260510093516 5 0 0.0 0.0 0.00 0.00 0.00 95 1014.2
20260510093036 5 0 0.0 0.0 0.00 0.00 0.00 95 1014.1
20260510092520 5 0 0.0 0.0 0.00 0.00 0.00 95 1014.1
20260510092016 5 0 0.0 0.0 0.00 0.00 0.00 95 1014.1
20260510091540 5 0 0.0 0.0 0.00 0.00 0.00 95 1014.1
20260510091015 5 0 0.0 0.0 0.00 0.00 0.00 95 1014.1
20260510090517 5 0 0.0 0.0 0.00 0.00 0.00 95 1013.9
20260510090036 5 0 0.0 0.0 0.00 0.00 0.00 95 1014.0
20260510085516 5 0 0.0 0.0 0.00 0.00 0.00 95 1014.0
20260510085015 5 0 0.0 0.0 0.00 0.00 0.00 95 1013.9
20260510084535 5 0 0.0 0.0 0.00 0.00 0.00 95 1014.0
20260510084015 5 0 0.0 0.0 0.00 0.00 0.00 94 1014.0
20260510083514 5 0 0.0 0.0 0.00 0.00 0.00 94 1013.8
20260510083048 5 0 0.0 0.0 0.00 0.00 0.00 94 1013.8
20260510082513 5 0 0.0 0.0 0.00 0.00 0.00 94 1013.8
20260510082020 5 0 0.0 0.0 0.00 0.00 0.00 94 1013.7
20260510081534 5 0 0.0 0.0 0.00 0.00 0.00 95 1013.7
20260510081013 5 0 0.0 0.0 0.00 0.00 0.00 95 1013.6
20260510080516 5 0 0.0 0.0 0.00 0.00 0.00 94 1013.7
20260510080034 5 0 0.0 0.0 0.00 0.00 0.00 94 1013.6
20260510075512 5 0 0.0 0.0 0.00 0.00 0.00 94 1013.4
20260510075015 5 0 0.0 0.0 0.00 0.00 0.00 94 1013.4
20260510074532 5 0 0.0 0.0 0.00 0.00 0.00 94 1013.5
20260510074017 5 0 0.0 0.0 0.00 0.00 0.00 94 1013.6
20260510073515 5 0 0.0 0.0 0.00 0.00 0.00 94 1013.5
20260510073038 5 0 0.0 0.0 0.00 0.00 0.00 94 1013.5
20260510072516 6 0 0.0 0.0 0.00 0.00 0.00 94 1013.4
20260510072014 6 0 0.0 0.0 0.00 0.00 0.00 94 1013.3
20260510071536 6 0 0.0 0.0 0.00 0.00 0.00 94 1013.3
20260510071019 6 0 0.0 0.0 0.00 0.00 0.00 94 1013.2
20260510070515 6 0 0.0 0.0 0.00 0.00 0.00 94 1013.4
20260510070031 6 0 0.0 0.0 0.00 0.00 0.00 94 1013.2
20260510065515 6 0 0.0 0.0 0.00 0.00 0.00 94 1013.2
20260510065017 6 0 0.0 0.0 0.00 0.00 0.00 94 1013.2
20260510064532 6 0 0.0 0.0 0.00 0.00 0.00 94 1013.2
20260510064015 6 0 0.0 0.0 0.00 0.00 0.00 94 1013.3
20260510063515 6 0 0.0 0.0 0.00 0.00 0.00 94 1013.3
20260510063034 6 0 0.0 0.0 0.00 0.00 0.00 93 1013.4
20260510062515 6 0 0.0 0.0 0.00 0.00 0.00 93 1013.4
20260510062014 6 0 0.0 0.0 0.00 0.00 0.00 93 1013.5
20260510061534 6 0 0.0 0.0 0.00 0.00 0.00 93 1013.4
20260510061016 7 0 0.0 0.0 0.00 0.00 0.00 93 1013.3
20260510060516 7 0 0.0 0.0 0.00 0.00 0.00 93 1013.2
20260510060040 7 0 0.0 0.0 0.00 0.00 0.00 93 1013.4
20260510055512 7 0 0.0 0.0 0.00 0.00 0.00 93 1013.4
20260510055016 7 0 0.0 0.0 0.00 0.00 0.00 93 1013.5
20260510054538 7 0 0.0 0.0 0.00 0.00 0.00 93 1013.5
20260510054018 7 0 0.0 0.0 0.00 0.00 0.00 93 1013.4
20260510053516 7 0 0.0 0.0 0.00 0.00 0.00 93 1013.5
20260510053036 7 0 0.0 0.0 0.00 0.00 0.00 93 1013.4
20260510052516 7 0 0.0 0.0 0.00 0.00 0.00 92 1013.4
20260510052014 7 0 0.0 0.0 0.00 0.00 0.00 92 1013.3
20260510051536 7 0 0.0 0.0 0.00 0.00 0.00 92 1013.4
20260510051016 7 0 0.0 0.0 0.00 0.00 0.00 92 1013.3
20260510050513 7 0 0.0 0.0 0.00 0.00 0.00 92 1013.3
20260510050034 7 0 0.0 0.0 0.00 0.00 0.00 92 1013.3
20260510045519 7 0 0.0 0.0 0.00 0.00 0.00 92 1013.3
20260510045016 8 0 0.0 0.0 0.00 0.00 0.00 92 1013.1
20260510044534 8 0 0.0 0.0 0.00 0.00 0.00 92 1013.0
20260510044016 8 0 0.0 0.0 0.00 0.00 0.00 91 1013.1
20260510043516 8 0 0.0 0.0 0.00 0.00 0.00 91 1013.2
20260510043035 8 0 0.0 0.0 0.00 0.00 0.00 91 1013.3
20260510042520 8 0 0.0 0.0 0.00 0.00 0.00 90 1013.3
20260510042015 8 0 0.0 0.0 0.00 0.00 0.00 91 1013.3
20260510041531 8 0 0.0 0.0 0.00 0.00 0.00 90 1013.1
20260510041015 8 0 0.0 0.0 0.00 0.00 0.00 90 1013.1
20260510040515 8 0 0.0 0.0 0.00 0.00 0.00 90 1013.0
20260510040033 8 0 0.0 0.0 0.00 0.00 0.00 89 1013.0
20260510035515 8 0 0.0 0.0 0.00 0.00 0.00 89 1012.9
20260510035015 9 0 0.0 0.0 0.00 0.00 0.00 89 1013.0
20260510034532 9 0 0.0 0.0 0.00 0.00 0.00 89 1013.0
20260510034012 9 0 0.0 0.0 0.00 0.00 0.00 88 1013.0
20260510033517 9 0 0.0 0.0 0.00 0.00 0.00 88 1012.9
20260510033032 9 0 0.0 0.0 0.00 0.00 0.00 88 1013.0
20260510032512 9 0 0.0 0.0 0.00 0.00 0.00 88 1012.8
20260510032015 10 0 0.0 0.0 0.00 0.00 0.00 88 1012.7
20260510031534 10 0 0.0 0.0 0.00 0.00 0.00 87 1012.8
20260510031016 10 0 0.0 0.0 0.00 0.00 0.00 87 1012.9
20260510030522 10 0 0.0 0.0 0.00 0.00 0.00 87 1012.7
20260510030033 10 0 0.0 0.0 0.00 0.00 0.00 87 1012.8
20260510025516 10 0 0.0 0.0 0.00 0.00 0.00 86 1012.7
20260510025013 10 0 0.0 0.0 0.00 0.00 0.00 86 1012.8
20260510024532 10 0 0.0 0.0 0.00 0.00 0.00 85 1012.6
20260510024015 10 0 0.0 0.0 0.00 0.00 0.00 85 1012.5
20260510023513 11 0 0.0 0.0 0.00 0.00 0.00 85 1012.7
20260510023034 11 0 0.0 0.0 0.00 0.00 0.00 85 1012.7
20260510022515 11 0 0.0 0.0 0.00 0.00 0.00 84 1012.5
20260510022017 11 0 0.0 0.0 0.00 0.00 0.00 84 1012.6
20260510021534 11 0 0.0 0.0 0.00 0.00 0.00 83 1012.4
20260510021015 11 0 0.0 0.0 0.00 0.00 0.00 83 1012.2
20260510020518 11 0 0.0 0.0 0.00 0.00 0.00 82 1012.4
20260510020034 11 0 0.0 0.0 0.00 0.00 0.00 82 1012.3
20260510015515 12 0 0.0 0.0 0.00 0.00 0.00 82 1012.2
20260510015012 12 0 0.0 0.0 0.00 0.00 0.00 81 1012.2
20260510014535 12 0 0.0 0.0 0.00 0.00 0.00 80 1012.0
20260510014015 12 0 0.0 0.0 0.00 0.00 0.00 80 1011.9
20260510013514 12 0 0.0 0.0 0.00 0.00 0.00 80 1011.7
20260510013032 12 0 0.0 0.0 0.00 0.00 0.00 79 1011.5
20260510012515 13 0 0.0 0.0 0.00 0.00 0.00 79 1011.5
20260510012012 13 0 0.0 0.0 0.00 0.00 0.00 78 1011.5
20260510011531 13 0 0.0 0.0 0.00 0.00 0.00 77 1011.5
20260510011011 13 0 0.0 0.0 0.00 0.00 0.00 76 1011.3
20260510010512 13 0 0.0 0.0 0.00 0.00 0.00 76 1011.3
20260510010035 14 0 0.0 0.0 0.00 0.00 0.00 76 1011.2
20260510005515 14 0 0.0 0.0 0.00 0.00 0.00 74 1011.3
20260510005015 15 0 0.0 0.0 0.00 0.00 0.00 73 1011.0
20260510004535 15 0 0.0 0.0 0.00 0.00 0.00 72 1011.0
20260510004014 15 0 0.0 0.0 0.00 0.00 0.00 72 1011.0
20260510003512 16 0 0.0 0.0 0.00 0.00 0.00 71 1010.9
20260510003038 16 0 0.0 0.0 0.00 0.00 0.00 70 1010.9
20260510002514 16 0 0.0 0.0 0.00 0.00 0.00 70 1010.9
20260510002015 17 0 0.0 0.0 0.00 0.00 0.00 68 1010.9
20260510001531 17 0 0.0 0.0 0.00 0.00 0.00 69 1010.8
20260510001015 17 0 0.0 0.0 0.00 0.00 0.00 66 1010.7
20260510000514 18 0 0.0 0.0 0.00 0.00 0.00 64 1010.6
20260510000034 18 0 0.0 0.0 0.00 0.00 0.00 62 1010.4
20260509235515 18 0 0.0 1.6 0.00 0.00 0.00 62 1010.3
20260509235015 20 0 0.0 1.6 0.00 0.00 0.00 57 1010.2
20260509234539 20 0 0.0 0.0 0.00 0.00 0.00 55 1010.3
20260509234013 20 0 0.0 0.0 0.00 0.00 0.00 52 1010.0
20260509233514 20 0 0.0 0.0 0.00 0.00 0.00 51 1010.0
20260509233036 21 0 0.0 1.6 0.00 0.00 0.00 53 1009.7
20260509232515 21 0 0.0 1.6 0.00 0.00 0.00 50 1009.9
20260509232014 21 0 0.0 3.2 0.00 0.00 0.00 49 1010.0
20260509231538 21 0 0.0 11.3 0.00 0.00 0.00 48 1009.8
20260509231014 21 0 0.0 11.3 0.00 0.00 0.00 46 1009.8
20260509230515 21 244 0.0 3.2 0.00 0.00 0.00 48 1009.7
20260509230033 21 0 0.0 3.2 0.00 0.00 0.00 46 1009.7
20260509225515 22 0 0.0 3.2 0.00 0.00 0.00 46 1009.5
20260509225015 22 0 0.0 11.3 0.00 0.00 0.00 45 1009.5
20260509224534 22 271 1.6 11.3 0.00 0.00 0.00 44 1009.5
20260509224012 22 350 1.6 8.0 0.00 0.00 0.00 45 1009.6
20260509223514 22 0 0.0 3.2 0.00 0.00 0.00 46 1009.5
20260509223035 22 0 0.0 3.2 0.00 0.00 0.00 43 1009.6
20260509222515 22 0 0.0 3.2 0.00 0.00 0.00 43 1009.5
20260509222013 22 0 0.0 3.2 0.00 0.00 0.00 44 1009.4
20260509221535 22 0 0.0 3.2 0.00 0.00 0.00 44 1009.4
20260509221015 22 0 0.0 0.0 0.00 0.00 0.00 45 1009.4
20260509220514 23 0 0.0 4.8 0.00 0.00 0.00 45 1009.4
20260509220033 23 0 0.0 4.8 0.00 0.00 0.00 41 1009.3
20260509215516 23 250 0.0 6.4 0.00 0.00 0.00 43 1009.4
20260509215015 23 0 0.0 6.4 0.00 0.00 0.00 43 1009.3
20260509214533 23 261 1.6 9.7 0.00 0.00 0.00 42 1009.2
20260509214014 23 0 0.0 9.7 0.00 0.00 0.00 45 1009.3
20260509213517 23 257 0.0 6.4 0.00 0.00 0.00 43 1009.2
20260509213032 23 0 0.0 0.0 0.00 0.00 0.00 43 1009.1
20260509212511 22 0 0.0 0.0 0.00 0.00 0.00 45 1009.0
20260509212018 22 0 0.0 9.7 0.00 0.00 0.00 46 1009.0
20260509211533 22 0 0.0 9.7 0.00 0.00 0.00 46 1009.0
20260509211016 22 185 0.0 8.0 0.00 0.00 0.00 43 1008.9
20260509210513 22 193 1.6 8.0 0.00 0.00 0.00 45 1008.8
20260509210035 22 211 0.0 8.0 0.00 0.00 0.00 45 1008.8
20260509205515 22 0 0.0 11.3 0.00 0.00 0.00 44 1008.9
20260509205015 22 0 1.6 11.3 0.00 0.00 0.00 44 1008.9
20260509204540 22 0 0.0 6.4 0.00 0.00 0.00 43 1008.8
20260509204015 22 0 1.6 4.8 0.00 0.00 0.00 44 1008.7
20260509203515 23 0 0.0 8.0 0.00 0.00 0.00 44 1008.8
20260509203039 23 137 0.0 8.0 0.00 0.00 0.00 42 1008.8